QPF
0.01 0.00 0.01 0.01 0.00 0.01 0.03 0.03 0.02 0.02 0.02 0.03 0.03 0.02 0.02 0.02 0.02 0.03 0.06 0.09 0.11 0.11 0.09 0.07 0.05 0.04 0.04 0.03 0.03 0.03 0.03 0.02 0.02 0.02 0.03 0.03 0.02 0.02 0.02 0.02 0.02 0.02 0.03
0.01 0.01 0.01 0.01 0.01 0.01 0.01 0.01 0.02 0.02 0.02 0.03 0.03 0.03 0.03 0.02 0.03 0.05 0.05 0.04 0.06 0.08 0.09 0.08 0.07 0.05 0.04 0.04 0.04 0.04 0.03 0.03 0.02 0.02 0.02 0.02 0.01 0.01 0.02 0.02 0.02 0.02 0.03
0.01 0.01 0.01 0.01 0.01 0.01 0.00 0.00 0.01 0.03 0.02 0.02 0.03 0.03 0.03 0.03 0.04 0.06 0.05 0.03 0.02 0.03 0.05 0.07 0.08 0.07 0.05 0.04 0.04 0.05 0.05 0.04 0.03 0.03 0.03 0.03 0.02 0.03 0.04 0.04 0.03 0.03 0.04
0.01 0.00 0.01 0.01 0.01 0.01 0.01 0.00 0.01 0.02 0.04 0.03 0.03 0.02 0.03 0.04 0.03 0.04 0.05 0.03 0.02 0.03 0.03 0.03 0.04 0.05 0.04 0.05 0.06 0.07 0.08 0.07 0.06 0.05 0.06 0.06 0.04 0.04 0.05 0.05 0.04 0.03 0.05
0.00 0.00 0.01 0.02 0.01 0.00 0.00 0.00 0.02 0.01 0.02 0.03 0.02 0.02 0.02 0.02 0.01 0.02 0.03 0.04 0.03 0.03 0.03 0.01 0.01 0.02 0.04 0.05 0.04 0.05 0.06 0.07 0.07 0.05 0.05 0.05 0.05 0.05 0.04 0.04 0.04 0.04 0.04
0.00 0.00 0.01 0.01 0.01 0.01 0.01 0.01 0.02 0.01 0.01 0.01 0.01 0.01 0.01 0.01 0.01 0.03 0.04 0.05 0.05 0.04 0.04 0.04 0.03 0.02 0.03 0.04 0.04 0.04 0.06 0.06 0.06 0.06 0.05 0.05 0.04 0.04 0.04 0.04 0.06 0.06 0.05
0.00 0.00 0.02 0.02 0.01 0.01 0.01 0.01 0.01 0.01 0.00 0.00 0.01 0.01 0.01 0.01 0.01 0.03 0.06 0.07 0.07 0.06 0.05 0.05 0.05 0.04 0.04 0.06 0.07 0.07 0.07 0.07 0.07 0.06 0.05 0.03 0.02 0.03 0.03 0.05 0.06 0.07 0.08
0.00 0.00 0.01 0.01 0.01 0.01 0.01 0.02 0.01 0.01 0.01 0.01 0.02 0.01 0.01 0.02 0.01 0.01 0.04 0.05 0.05 0.04 0.02 0.02 0.02 0.03 0.03 0.05 0.05 0.04 0.04 0.04 0.05 0.04 0.03 0.03 0.03 0.03 0.03 0.04 0.06 0.06 0.05
0.00 0.01 0.01 0.00 0.01 0.01 0.02 0.02 0.03 0.02 0.02 0.01 0.02 0.02 0.03 0.02 0.01 0.01 0.02 0.02 0.03 0.04 0.02 0.01 0.01 0.01 0.01 0.02 0.03 0.02 0.01 0.01 0.02 0.03 0.03 0.03 0.04 0.05 0.06 0.03 0.03 0.03 0.03
0.00 0.00 0.00 0.01 0.01 0.01 0.01 0.02 0.01 0.01 0.01 0.01 0.01 0.01 0.01 0.01 0.01 0.01 0.01 0.01 0.01 0.02 0.02 0.01 0.01 0.01 0.01 0.01 0.01 0.01 0.01 0.01 0.02 0.02 0.03 0.03 0.06 0.11 0.17 0.10 0.03 0.02 0.02
0.00 0.00 0.00 0.00 0.00 0.01 0.01 0.01 0.01 0.01 0.01 0.01 0.01 0.01 0.00 0.00 0.00 0.01 0.01 0.01 0.01 0.00 0.00 0.01 0.01 0.01 0.00 0.01 0.01 0.01 0.01 0.02 0.01 0.01 0.02 0.03 0.08 0.15 0.20 0.16 0.06 0.03 0.03
0.01 0.00 0.01 0.00 0.00 0.00 0.00 0.00 0.01 0.01 0.01 0.01 0.00 0.00 0.01 0.01 0.01 0.01 0.01 0.01 0.00 0.00 0.00 0.00 0.00 0.00 0.00 0.00 0.00 0.01 0.01 0.01 0.01 0.02 0.03 0.03 0.06 0.13 0.13 0.13 0.11 0.06 0.04
0.01 0.01 0.00 0.00 0.00 0.00 0.00 0.00 0.00 0.01 0.01 0.01 0.00 0.00 0.01 0.01 0.01 0.01 0.01 0.00 0.00 0.00 0.00 0.00 0.00 0.00 0.00 0.00 0.01 0.01 0.02 0.02 0.02 0.02 0.03 0.04 0.04 0.05 0.08 0.07 0.08 0.08 0.06
0.01 0.01 0.01 0.00 0.00 0.00 0.00 0.00 0.00 0.00 0.00 0.01 0.00 0.01 0.01 0.01 0.01 0.00 0.00 0.01 0.01 0.00 0.00 0.00 0.00 0.00 0.00 0.00 0.00 0.01 0.02 0.03 0.02 0.03 0.04 0.03 0.02 0.02 0.03 0.05 0.04 0.03 0.04
0.00 0.01 0.00 0.00 0.00 0.00 0.00 0.00 0.00 0.01 0.01 0.00 0.00 0.00 0.01 0.01 0.01 0.00 0.00 0.00 0.01 0.01 0.00 0.00 0.00 0.00 0.00 0.00 0.00 0.01 0.02 0.03 0.02 0.03 0.03 0.02 0.01 0.01 0.01 0.02 0.03 0.03 0.03
0.00 0.00 0.00 0.00 0.01 0.00 0.00 0.00 0.00 0.00 0.00 0.00 0.00 0.00 0.01 0.02 0.01 0.00 0.00 0.00 0.00 0.00 0.00 0.00 0.00 0.00 0.00 0.00 0.00 0.01 0.02 0.01 0.01 0.02 0.02 0.01 0.01 0.00 0.00 0.00 0.01 0.02 0.03
0.00 0.00 0.00 0.00 0.01 0.00 0.00 0.00 0.00 0.00 0.00 0.00 0.00 0.00 0.00 0.01 0.00 0.00 0.00 0.00 0.00 0.00 0.00 0.00 0.00 0.00 0.00 0.00 0.00 0.00 0.00 0.00 0.02 0.03 0.01 0.01 0.01 0.01 0.01 0.00 0.00 0.01 0.01
0.01 0.00 0.00 0.00 0.00 0.00 0.00 0.00 0.00 0.00 0.01 0.01 0.01 0.00 0.00 0.00 0.00 0.00 0.00 0.00 0.00 0.00 0.00 0.00 0.00 0.01 0.00 0.00 0.00 0.00 0.00 0.00 0.01 0.02 0.02 0.01 0.01 0.01 0.01 0.00 0.00 0.01 0.01
0.01 0.00 0.00 0.00 0.00 0.00 0.00 0.00 0.00 0.00 0.01 0.01 0.00 0.00 0.00 0.00 0.01 0.01 0.00 0.00 0.00 0.00 0.00 0.00 0.00 0.00 0.00 0.00 0.00 0.00 0.00 0.00 0.00 0.00 0.01 0.01 0.01 0.01 0.01 0.01 0.01 0.00 0.00
0.00 0.00 0.00 0.00 0.00 0.00 0.00 0.00 0.00 0.00 0.01 0.00 0.00 0.00 0.00 0.00 0.01 0.01 0.01 0.00 0.00 0.00 0.00 0.00 0.00 0.00 0.00 0.00 0.00 0.00 0.00 0.00 0.01 0.01 0.01 0.01 0.01 0.01 0.01 0.01 0.01 0.00 0.00
0.00 0.00 0.00 0.00 0.00 0.00 0.00 0.00 0.00 0.01 0.01 0.01 0.01 0.01 0.00 0.01 0.01 0.01 0.00 0.01 0.00 0.00 0.00 0.00 0.00 0.00 0.00 0.00 0.00 0.00 0.01 0.01 0.01 0.01 0.01 0.01 0.01 0.01 0.00 0.00 0.00 0.00 0.00
0.00 0.01 0.01 0.01 0.00 0.00 0.00 0.00 0.00 0.01 0.01 0.01 0.01 0.01 0.00 0.00 0.01 0.01 0.00 0.00 0.00 0.00 0.00 0.00 0.00 0.00 0.00 0.00 0.00 0.00 0.02 0.02 0.02 0.01 0.00 0.01 0.01 0.01 0.00 0.00 0.00 0.00 0.01
0.00 0.00 0.00 0.00 0.00 0.01 0.00 0.00 0.01 0.01 0.00 0.00 0.00 0.01 0.01 0.01 0.01 0.01 0.01 0.00 0.00 0.00 0.00 0.00 0.01 0.01 0.01 0.00 0.00 0.00 0.00 0.01 0.01 0.02 0.01 0.01 0.01 0.01 0.01 0.00 0.01 0.01 0.01
0.00 0.00 0.00 0.00 0.01 0.01 0.01 0.01 0.01 0.01 0.01 0.00 0.01 0.01 0.00 0.01 0.01 0.01 0.01 0.00 0.00 0.01 0.01 0.00 0.01 0.01 0.01 0.01 0.00 0.00 0.00 0.00 0.00 0.01 0.01 0.01 0.01 0.01 0.01 0.01 0.01 0.01 0.01
0.00 0.00 0.00 0.00 0.00 0.01 0.01 0.01 0.01 0.00 0.00 0.01 0.01 0.01 0.01 0.01 0.02 0.02 0.00 0.00 0.00 0.01 0.01 0.01 0.01 0.01 0.01 0.00 0.00 0.00 0.00 0.00 0.00 0.00 0.00 0.00 0.00 0.00 0.00 0.00 0.00 0.01 0.01
0.01 0.01 0.00 0.01 0.01 0.02 0.03 0.02 0.01 0.01 0.01 0.01 0.01 0.01 0.02 0.01 0.01 0.01 0.00 0.00 0.00 0.01 0.01 0.00 0.00 0.00 0.01 0.01 0.01 0.00 0.00 0.00 0.00 0.00 0.00 0.00 0.00 0.00 0.00 0.00 0.00 0.00 0.00
MSLP
1015.86 1015.83 1015.75 1015.66 1015.54 1015.43 1015.33 1015.25 1015.18 1015.12 1015.06 1014.98 1014.88 1014.74 1014.55 1014.30 1013.99 1013.60 1013.13 1012.59 1012.00 1011.38 1010.79 1010.27 1009.88 1009.68 1009.68 1009.87 1010.25 1010.75 1011.32 1011.88 1012.39 1012.80 1013.10 1013.30 1013.43 1013.51 1013.57 1013.63 1013.69 1013.73 1013.73
1016.06 1015.98 1015.89 1015.78 1015.68 1015.59 1015.51 1015.47 1015.44 1015.43 1015.42 1015.39 1015.33 1015.22 1015.05 1014.79 1014.44 1013.97 1013.39 1012.72 1011.98 1011.22 1010.51 1009.90 1009.47 1009.27 1009.31 1009.59 1010.06 1010.67 1011.33 1011.98 1012.55 1013.00 1013.32 1013.52 1013.63 1013.68 1013.72 1013.75 1013.78 1013.80 1013.80
1016.29 1016.19 1016.08 1015.98 1015.89 1015.82 1015.79 1015.78 1015.79 1015.83 1015.86 1015.89 1015.87 1015.81 1015.66 1015.41 1015.04 1014.52 1013.87 1013.11 1012.27 1011.41 1010.61 1009.94 1009.48 1009.28 1009.34 1009.66 1010.19 1010.85 1011.57 1012.27 1012.86 1013.33 1013.64 1013.83 1013.92 1013.95 1013.95 1013.95 1013.96 1013.97 1013.95
1016.53 1016.41 1016.31 1016.22 1016.15 1016.11 1016.11 1016.13 1016.18 1016.25 1016.33 1016.40 1016.44 1016.42 1016.32 1016.11 1015.76 1015.24 1014.58 1013.78 1012.89 1011.99 1011.15 1010.45 1009.96 1009.74 1009.80 1010.12 1010.65 1011.32 1012.04 1012.72 1013.31 1013.75 1014.05 1014.21 1014.27 1014.28 1014.25 1014.23 1014.22 1014.21 1014.19
1016.75 1016.64 1016.55 1016.48 1016.44 1016.43 1016.44 1016.49 1016.55 1016.64 1016.74 1016.85 1016.93 1016.98 1016.95 1016.80 1016.52 1016.07 1015.45 1014.69 1013.83 1012.95 1012.11 1011.40 1010.90 1010.65 1010.68 1010.95 1011.43 1012.04 1012.69 1013.31 1013.84 1014.24 1014.49 1014.63 1014.67 1014.65 1014.61 1014.58 1014.55 1014.54 1014.51
1016.94 1016.85 1016.79 1016.75 1016.73 1016.73 1016.75 1016.79 1016.85 1016.94 1017.05 1017.18 1017.31 1017.42 1017.47 1017.43 1017.26 1016.93 1016.43 1015.77 1015.01 1014.19 1013.40 1012.71 1012.20 1011.92 1011.88 1012.07 1012.45 1012.94 1013.48 1014.00 1014.43 1014.75 1014.95 1015.05 1015.07 1015.04 1015.00 1014.96 1014.93 1014.91 1014.89
1017.11 1017.05 1017.02 1017.00 1017.00 1017.01 1017.02 1017.04 1017.07 1017.13 1017.23 1017.37 1017.54 1017.71 1017.86 1017.95 1017.92 1017.75 1017.41 1016.91 1016.28 1015.58 1014.87 1014.23 1013.72 1013.40 1013.28 1013.36 1013.60 1013.95 1014.34 1014.72 1015.04 1015.27 1015.41 1015.47 1015.47 1015.44 1015.39 1015.36 1015.33 1015.31 1015.28
1017.28 1017.26 1017.25 1017.25 1017.26 1017.26 1017.24 1017.22 1017.22 1017.24 1017.31 1017.44 1017.63 1017.86 1018.11 1018.31 1018.44 1018.43 1018.28 1017.96 1017.50 1016.94 1016.34 1015.76 1015.27 1014.92 1014.72 1014.68 1014.78 1014.97 1015.20 1015.44 1015.64 1015.78 1015.86 1015.88 1015.87 1015.83 1015.79 1015.76 1015.73 1015.71 1015.67
1017.48 1017.47 1017.49 1017.50 1017.50 1017.48 1017.44 1017.38 1017.32 1017.29 1017.33 1017.44 1017.63 1017.90 1018.21 1018.52 1018.78 1018.93 1018.95 1018.81 1018.52 1018.12 1017.63 1017.14 1016.68 1016.31 1016.05 1015.91 1015.88 1015.93 1016.02 1016.13 1016.23 1016.29 1016.31 1016.30 1016.27 1016.24 1016.20 1016.16 1016.13 1016.09 1016.04
1017.70 1017.71 1017.73 1017.74 1017.74 1017.70 1017.63 1017.53 1017.43 1017.35 1017.34 1017.42 1017.59 1017.87 1018.21 1018.58 1018.93 1019.20 1019.36 1019.37 1019.23 1018.96 1018.60 1018.19 1017.79 1017.43 1017.14 1016.94 1016.83 1016.78 1016.77 1016.79 1016.81 1016.81 1016.80 1016.77 1016.72 1016.68 1016.63 1016.58 1016.53 1016.47 1016.39
1017.93 1017.94 1017.96 1017.98 1017.97 1017.92 1017.84 1017.71 1017.57 1017.46 1017.40 1017.43 1017.57 1017.82 1018.15 1018.54 1018.92 1019.26 1019.49 1019.61 1019.58 1019.43 1019.18 1018.87 1018.54 1018.22 1017.95 1017.74 1017.60 1017.51 1017.45 1017.42 1017.40 1017.37 1017.34 1017.29 1017.24 1017.18 1017.11 1017.04 1016.95 1016.86 1016.75
1018.14 1018.14 1018.17 1018.19 1018.19 1018.15 1018.07 1017.94 1017.79 1017.65 1017.55 1017.54 1017.62 1017.81 1018.09 1018.43 1018.80 1019.13 1019.39 1019.56 1019.61 1019.55 1019.40 1019.18 1018.94 1018.70 1018.49 1018.33 1018.20 1018.12 1018.08 1018.04 1018.02 1017.99 1017.95 1017.89 1017.83 1017.75 1017.66 1017.55 1017.43 1017.30 1017.15
1018.30 1018.30 1018.33 1018.37 1018.39 1018.38 1018.32 1018.21 1018.07 1017.92 1017.80 1017.74 1017.76 1017.87 1018.07 1018.33 1018.62 1018.91 1019.15 1019.32 1019.40 1019.41 1019.34 1019.22 1019.08 1018.95 1018.83 1018.75 1018.70 1018.67 1018.67 1018.67 1018.66 1018.65 1018.62 1018.56 1018.49 1018.40 1018.28 1018.14 1017.98 1017.80 1017.61
1018.39 1018.40 1018.45 1018.51 1018.57 1018.60 1018.58 1018.51 1018.40 1018.27 1018.14 1018.04 1018.00 1018.03 1018.13 1018.29 1018.49 1018.69 1018.88 1019.02 1019.11 1019.16 1019.16 1019.14 1019.10 1019.08 1019.07 1019.09 1019.13 1019.19 1019.24 1019.29 1019.33 1019.34 1019.32 1019.27 1019.20 1019.09 1018.96 1018.80 1018.61 1018.40 1018.18
1018.43 1018.46 1018.53 1018.63 1018.74 1018.82 1018.86 1018.85 1018.78 1018.67 1018.55 1018.43 1018.35 1018.31 1018.31 1018.37 1018.47 1018.58 1018.70 1018.81 1018.90 1018.97 1019.03 1019.08 1019.15 1019.23 1019.33 1019.44 1019.57 1019.70 1019.82 1019.91 1019.98 1020.01 1020.01 1019.97 1019.90 1019.79 1019.66 1019.49 1019.29 1019.07 1018.84
1018.45 1018.51 1018.61 1018.75 1018.91 1019.05 1019.15 1019.19 1019.18 1019.12 1019.02 1018.90 1018.79 1018.70 1018.64 1018.62 1018.63 1018.67 1018.73 1018.81 1018.89 1018.98 1019.08 1019.20 1019.34 1019.50 1019.68 1019.87 1020.06 1020.24 1020.39 1020.51 1020.59 1020.64 1020.64 1020.61 1020.55 1020.45 1020.33 1020.18 1020.00 1019.80 1019.57
1018.51 1018.60 1018.74 1018.92 1019.12 1019.31 1019.46 1019.56 1019.60 1019.58 1019.51 1019.41 1019.30 1019.20 1019.11 1019.05 1019.02 1019.02 1019.05 1019.10 1019.18 1019.29 1019.42 1019.58 1019.77 1019.98 1020.20 1020.41 1020.62 1020.80 1020.95 1021.06 1021.13 1021.16 1021.16 1021.14 1021.08 1021.01 1020.93 1020.82 1020.69 1020.53 1020.34
1018.66 1018.78 1018.96 1019.17 1019.39 1019.61 1019.80 1019.94 1020.03 1020.05 1020.03 1019.97 1019.88 1019.80 1019.72 1019.66 1019.63 1019.62 1019.65 1019.71 1019.80 1019.92 1020.07 1020.25 1020.45 1020.66 1020.87 1021.07 1021.24 1021.39 1021.49 1021.55 1021.58 1021.58 1021.56 1021.53 1021.49 1021.45 1021.41 1021.36 1021.29 1021.19 1021.06
1018.92 1019.09 1019.29 1019.51 1019.75 1019.98 1020.19 1020.35 1020.46 1020.53 1020.55 1020.54 1020.51 1020.47 1020.44 1020.42 1020.42 1020.45 1020.50 1020.58 1020.68 1020.81 1020.97 1021.14 1021.32 1021.50 1021.67 1021.80 1021.91 1021.97 1022.00 1021.99 1021.95 1021.89 1021.84 1021.80 1021.77 1021.77 1021.78 1021.79 1021.79 1021.76 1021.68
1019.30 1019.50 1019.72 1019.95 1020.18 1020.41 1020.61 1020.78 1020.91 1021.01 1021.08 1021.13 1021.17 1021.20 1021.24 1021.29 1021.35 1021.42 1021.52 1021.63 1021.75 1021.89 1022.03 1022.18 1022.32 1022.44 1022.54 1022.59 1022.60 1022.56 1022.49 1022.39 1022.27 1022.15 1022.06 1022.00 1021.98 1021.99 1022.04 1022.11 1022.16 1022.19 1022.16
1019.76 1019.99 1020.21 1020.44 1020.66 1020.87 1021.06 1021.23 1021.37 1021.51 1021.63 1021.74 1021.85 1021.97 1022.09 1022.21 1022.34 1022.48 1022.61 1022.75 1022.89 1023.03 1023.16 1023.27 1023.36 1023.41 1023.43 1023.39 1023.30 1023.17 1022.99 1022.80 1022.60 1022.42 1022.28 1022.19 1022.15 1022.18 1022.24 1022.34 1022.43 1022.49 1022.49
1020.22 1020.48 1020.71 1020.94 1021.14 1021.34 1021.51 1021.68 1021.85 1022.01 1022.19 1022.36 1022.55 1022.75 1022.95 1023.15 1023.35 1023.53 1023.71 1023.87 1024.01 1024.14 1024.24 1024.32 1024.36 1024.35 1024.30 1024.18 1024.02 1023.80 1023.55 1023.27 1023.01 1022.77 1022.58 1022.45 1022.39 1022.39 1022.44 1022.53 1022.62 1022.68 1022.68
1020.62 1020.90 1021.16 1021.39 1021.59 1021.78 1021.96 1022.14 1022.33 1022.54 1022.76 1023.01 1023.27 1023.54 1023.81 1024.07 1024.32 1024.54 1024.74 1024.90 1025.04 1025.15 1025.23 1025.27 1025.27 1025.23 1025.12 1024.96 1024.75 1024.48 1024.17 1023.85 1023.53 1023.24 1023.01 1022.83 1022.72 1022.68 1022.70 1022.74 1022.78 1022.80 1022.77
1020.89 1021.22 1021.50 1021.75 1021.98 1022.19 1022.39 1022.60 1022.83 1023.09 1023.37 1023.68 1024.01 1024.34 1024.67 1024.97 1025.24 1025.48 1025.68 1025.83 1025.95 1026.04 1026.10 1026.12 1026.10 1026.03 1025.91 1025.74 1025.51 1025.22 1024.90 1024.55 1024.20 1023.88 1023.59 1023.36 1023.20 1023.09 1023.03 1022.99 1022.96 1022.91 1022.81
1021.03 1021.40 1021.74 1022.03 1022.30 1022.55 1022.80 1023.06 1023.35 1023.67 1024.01 1024.39 1024.77 1025.15 1025.51 1025.84 1026.12 1026.35 1026.53 1026.66 1026.76 1026.82 1026.86 1026.86 1026.84 1026.78 1026.67 1026.51 1026.29 1026.02 1025.71 1025.36 1025.00 1024.65 1024.32 1024.03 1023.79 1023.60 1023.44 1023.31 1023.18 1023.03 1022.83
1021.05 1021.50 1021.89 1022.25 1022.58 1022.89 1023.20 1023.53 1023.88 1024.27 1024.69 1025.12 1025.55 1025.97 1026.35 1026.68 1026.95 1027.16 1027.32 1027.42 1027.48 1027.52 1027.54 1027.54 1027.52 1027.48 1027.40 1027.27 1027.09 1026.85 1026.56 1026.22 1025.86 1025.48 1025.11 1024.77 1024.45 1024.17 1023.91 1023.67 1023.43 1023.17 1022.89
Thickness
5722 5722 5721 5719 5719 5718 5718 5717 5718 5717 5717 5716 5716 5715 5716 5716 5717 5716 5714 5714 5715 5717 5719 5721 5723 5724 5724 5725 5726 5727 5728 5729 5730 5731 5732 5733 5734 5735 5736 5737 5739 5740 5741
5719 5719 5718 5716 5716 5715 5715 5714 5714 5712 5712 5711 5711 5710 5710 5711 5711 5711 5711 5710 5710 5712 5714 5716 5719 5720 5720 5721 5721 5722 5723 5724 5725 5727 5728 5729 5729 5731 5732 5733 5735 5736 5737
5717 5717 5716 5715 5713 5712 5712 5711 5710 5709 5708 5707 5706 5705 5705 5705 5707 5707 5707 5708 5708 5708 5709 5711 5713 5715 5715 5715 5716 5717 5718 5718 5720 5722 5723 5724 5725 5726 5727 5729 5730 5731 5732
5715 5714 5713 5712 5710 5710 5709 5708 5707 5706 5704 5703 5702 5701 5701 5701 5702 5703 5704 5705 5705 5706 5706 5706 5708 5709 5710 5710 5711 5712 5712 5713 5715 5717 5718 5718 5719 5720 5722 5723 5725 5726 5727
5714 5713 5711 5710 5709 5708 5707 5706 5704 5703 5700 5698 5698 5697 5698 5698 5698 5699 5701 5701 5701 5702 5703 5702 5702 5703 5704 5704 5705 5706 5707 5708 5709 5710 5712 5712 5713 5715 5716 5718 5719 5721 5722
5711 5710 5709 5708 5707 5706 5704 5702 5700 5699 5698 5697 5697 5695 5695 5695 5695 5695 5697 5697 5698 5698 5699 5699 5699 5699 5698 5698 5699 5700 5701 5702 5703 5704 5705 5706 5707 5709 5711 5712 5714 5715 5716
5708 5708 5707 5706 5705 5704 5702 5701 5699 5697 5696 5696 5695 5693 5693 5694 5693 5692 5693 5694 5694 5693 5694 5695 5695 5695 5694 5693 5694 5694 5695 5696 5697 5698 5700 5700 5701 5703 5705 5707 5709 5710 5711
5706 5706 5705 5704 5703 5701 5700 5699 5697 5696 5695 5695 5694 5692 5690 5690 5690 5691 5690 5690 5691 5691 5691 5691 5691 5691 5691 5691 5689 5689 5689 5690 5691 5692 5693 5694 5696 5697 5699 5702 5704 5706 5705
5703 5703 5703 5703 5701 5701 5699 5697 5696 5694 5694 5694 5695 5693 5690 5687 5687 5688 5687 5687 5687 5687 5688 5687 5687 5687 5686 5686 5685 5684 5684 5684 5685 5687 5688 5689 5690 5691 5693 5697 5699 5700 5700
5701 5700 5701 5700 5700 5700 5697 5697 5696 5694 5693 5692 5693 5692 5693 5691 5688 5685 5685 5685 5684 5684 5684 5684 5683 5682 5682 5681 5679 5678 5678 5679 5680 5681 5682 5682 5683 5685 5686 5689 5692 5692 5692
5698 5698 5698 5699 5699 5698 5697 5695 5694 5693 5693 5692 5691 5691 5689 5688 5690 5686 5682 5681 5683 5682 5681 5681 5680 5679 5678 5677 5676 5674 5673 5674 5674 5675 5676 5676 5677 5678 5678 5680 5682 5683 5682
5697 5697 5696 5697 5697 5696 5695 5694 5692 5691 5691 5690 5690 5690 5689 5687 5686 5684 5682 5680 5679 5679 5679 5678 5677 5675 5674 5673 5672 5670 5669 5669 5669 5670 5670 5670 5670 5671 5671 5671 5673 5673 5673
5696 5696 5696 5696 5695 5694 5693 5692 5691 5690 5689 5688 5688 5688 5687 5687 5686 5685 5683 5680 5678 5678 5677 5676 5674 5672 5671 5670 5668 5666 5665 5665 5665 5664 5664 5664 5664 5664 5664 5664 5664 5665 5664
5697 5696 5694 5694 5693 5692 5691 5690 5690 5689 5689 5688 5686 5685 5684 5684 5684 5682 5681 5679 5677 5677 5676 5674 5672 5670 5668 5666 5664 5663 5662 5661 5660 5659 5659 5658 5658 5658 5657 5657 5657 5657 5656
5696 5695 5693 5693 5691 5690 5689 5688 5687 5687 5686 5686 5685 5684 5683 5682 5681 5680 5679 5678 5676 5673 5671 5670 5668 5666 5664 5662 5661 5661 5660 5656 5655 5654 5653 5653 5652 5651 5650 5650 5649 5648 5648
5695 5693 5693 5692 5690 5688 5687 5686 5685 5684 5684 5682 5681 5681 5680 5680 5678 5677 5676 5675 5675 5673 5669 5668 5665 5664 5661 5660 5657 5657 5655 5653 5651 5649 5648 5647 5646 5645 5644 5643 5642 5641 5640
5693 5693 5692 5691 5690 5688 5686 5684 5683 5682 5682 5681 5681 5679 5678 5677 5676 5675 5673 5672 5671 5669 5665 5664 5663 5660 5658 5656 5654 5653 5652 5650 5648 5644 5643 5641 5640 5639 5637 5636 5635 5634 5632
5693 5692 5691 5690 5688 5687 5685 5683 5681 5680 5679 5678 5678 5677 5676 5674 5672 5672 5670 5669 5667 5666 5663 5659 5658 5656 5654 5652 5650 5648 5647 5645 5643 5639 5637 5635 5633 5632 5630 5629 5627 5625 5624
5691 5690 5690 5688 5686 5685 5684 5682 5680 5679 5677 5676 5675 5674 5673 5672 5669 5668 5666 5665 5663 5661 5659 5656 5653 5650 5649 5647 5645 5643 5642 5640 5638 5635 5632 5629 5626 5624 5622 5621 5619 5617 5615
5689 5688 5687 5686 5684 5683 5681 5680 5678 5677 5675 5674 5672 5670 5669 5667 5665 5664 5662 5660 5658 5655 5653 5651 5648 5646 5643 5641 5640 5638 5637 5635 5632 5630 5626 5624 5620 5618 5615 5613 5611 5609 5607
5686 5685 5684 5682 5681 5679 5678 5677 5675 5674 5673 5670 5668 5666 5663 5660 5657 5656 5656 5654 5653 5650 5648 5645 5643 5641 5638 5635 5633 5632 5631 5629 5627 5623 5621 5619 5616 5613 5609 5605 5602 5599 5597
5683 5682 5680 5679 5677 5675 5672 5670 5670 5670 5669 5666 5664 5662 5659 5655 5651 5648 5646 5645 5644 5644 5643 5640 5638 5635 5632 5629 5626 5625 5624 5622 5620 5616 5613 5612 5608 5605 5601 5597 5592 5590 5588
5679 5677 5676 5675 5673 5670 5667 5665 5663 5664 5664 5662 5660 5657 5654 5651 5648 5646 5642 5638 5636 5633 5632 5634 5631 5629 5626 5624 5620 5618 5616 5614 5611 5608 5604 5604 5601 5597 5592 5588 5584 5581 5579
5676 5673 5672 5670 5668 5665 5662 5660 5658 5659 5658 5656 5654 5652 5650 5647 5643 5641 5639 5636 5633 5630 5627 5625 5624 5621 5618 5615 5613 5611 5609 5607 5605 5599 5595 5595 5593 5589 5585 5580 5575 5572 5569
5672 5670 5668 5666 5663 5661 5657 5655 5654 5655 5653 5651 5649 5646 5644 5641 5636 5633 5633 5632 5629 5625 5620 5616 5613 5610 5607 5604 5602 5602 5600 5599 5598 5594 5587 5584 5584 5580 5577 5573 5568 5564 5560
5669 5666 5663 5662 5659 5657 5653 5650 5649 5650 5649 5647 5644 5641 5636 5634 5630 5627 5628 5626 5623 5620 5617 5612 5608 5604 5601 5598 5594 5593 5591 5589 5589 5586 5579 5574 5574 5572 5570 5566 5560 5556 5552